Location: Munkebjergskolens Observatorium
(55.3864°N, 10.3987°E)
Time: 03:50:21
(UTC+02:00)

KKS-1 - Visible Passes

Search period start: 17 April 2024 00:00
Search period end: 27 April 2024 00:00
Orbit: 629 x 640 km, 98.1° (Epoch: 16 April)

Date Brightness Start Highest point End Pass type
(mag) Time Alt. Az. Time Alt. Az. Time Alt. Az.
17 Apr ? 00:15:19 10° NNE 00:19:21 42° E 00:19:21 42° E visible
17 Apr ? 01:51:54 10° N 01:55:51 33° WNW 01:56:50 29° W visible
17 Apr ? 23:03:06 10° ENE 23:03:55 11° E 23:03:55 11° E visible
18 Apr ? 00:36:53 10° NNE 00:41:20 64° ESE 00:41:23 64° ESE visible
18 Apr ? 02:13:50 10° N 02:17:21 23° WNW 02:18:51 20° W visible
18 Apr ? 23:23:15 10° NE 23:25:55 16° E 23:25:55 16° E visible
19 Apr ? 00:58:33 10° NNE 01:03:02 85° WNW 01:03:23 75° SW visible
19 Apr ? 02:35:56 10° NNW 02:38:48 17° NW 02:40:51 13° W visible
19 Apr ? 23:44:20 10° NE 23:47:56 24° E 23:47:56 24° E visible
20 Apr ? 01:20:17 10° N 01:24:39 57° WNW 01:25:24 49° WSW visible
20 Apr ? 02:58:18 10° NNW 03:00:10 12° NW 03:02:01 10° WNW visible
21 Apr ? 00:05:41 10° NNE 00:09:47 35° E 00:09:55 35° E visible
21 Apr ? 01:42:04 10° N 01:46:12 38° WNW 01:47:23 32° W visible
22 Apr ? 00:27:10 10° NNE 00:31:33 53° E 00:31:54 51° ESE visible
22 Apr ? 02:03:57 10° N 02:07:42 27° WNW 02:09:22 21° W visible
22 Apr ? 23:13:56 10° NE 23:16:06 13° E 23:16:25 13° E visible
23 Apr ? 00:48:45 10° NNE 00:53:14 80° ESE 00:53:53 64° S visible
23 Apr ? 02:25:55 10° N 02:29:08 20° NW 02:31:20 14° W visible
23 Apr ? 23:34:45 10° NE 23:38:01 20° E 23:38:22 20° E visible
24 Apr ? 01:10:25 10° NNE 01:14:51 69° WNW 01:15:50 51° SW visible
24 Apr ? 02:48:05 10° NNW 02:50:29 14° NW 02:52:53 10° W visible
24 Apr ? 23:55:57 10° NNE 23:59:51 29° E 00:00:20 28° ESE visible
25 Apr ? 01:32:08 10° N 01:36:24 46° WNW 01:37:48 34° WSW visible
25 Apr ? 03:10:52 10° NNW 03:11:47 11° NW 03:12:41 10° WNW visible
26 Apr ? 00:17:21 10° NNE 00:21:37 43° E 00:22:17 40° ESE visible
26 Apr ? 01:53:56 10° N 01:57:54 32° WNW 01:59:45 23° WSW visible
26 Apr ? 23:04:55 10° ENE 23:06:02 11° E 23:06:45 10° E visible
